This is the latest recevied weather packets stored in our database for station/object WX4SGA. If no packets are shown the sender has not sent any weather packets the latest 10 day(s).
| Time | Temp. | Humidity | Pressure | Rain* | Wind** | Luminosity | Snow |
|---|---|---|---|---|---|---|---|
| 1777682497 | 15.56° C | 94% | 1011.2 hPa | 0 mm | - | 0 W/m² | - |
| 1777682195 | 15.56° C | 94% | 1011.2 hPa | 0 mm | - | 0 W/m² | - |
| 1777681892 | 15.56° C | 94% | 1011.2 hPa | 0 mm | - | 0 W/m² | - |
| 1777681588 | 15.56° C | 94% | 1011.2 hPa | 0 mm | - | 0 W/m² | - |
| 1777681286 | 15.56° C | 94% | 1011.5 hPa | 0 mm | - | 0 W/m² | - |
| 1777680983 | 15.56° C | 94% | 1011.2 hPa | 1.78 mm | - | 0 W/m² | - |
| 1777680680 | 15.56° C | 94% | 1011.2 hPa | 1.78 mm | - | 1 W/m² | - |
| 1777680378 | 15.56° C | 94% | 1011.5 hPa | 0 mm | - | 1 W/m² | - |
| 1777680075 | 15.56° C | 93% | 1011.5 hPa | 1.27 mm | - | 1 W/m² | - |
| 1777679771 | 15.56° C | 93% | 1011.9 hPa | 0 mm | - | 2 W/m² | - |
| 1777679467 | 16.11° C | 93% | 1012.2 hPa | 0 mm | - | 2 W/m² | - |
| 1777679163 | 16.11° C | 93% | 1012.5 hPa | 1.78 mm | - | 3 W/m² | - |
| 1777678861 | 16.11° C | 93% | 1011.9 hPa | 1.78 mm | - | 3 W/m² | - |
| 1777678559 | 16.11° C | 92% | 1011.5 hPa | 0 mm | - | 5 W/m² | - |
| 1777678255 | 16.67° C | 91% | 1011.9 hPa | 0 mm | - | 5 W/m² | - |
| 1777677951 | 16.67° C | 89% | 1012.2 hPa | 0 mm | - | 6 W/m² | - |
| 1777677649 | 16.67° C | 88% | 1012.2 hPa | 0 mm | - | 7 W/m² | - |
| 1777677346 | 16.67° C | 87% | 1012.5 hPa | 0 mm | - | 7 W/m² | - |
| 1777677045 | 16.67° C | 86% | 1011.9 hPa | 0 mm | - | 10 W/m² | - |
| 1777676743 | 16.67° C | 88% | 1011.9 hPa | 0 mm | - | 11 W/m² | - |
| 1777676441 | 17.22° C | 90% | 1011.9 hPa | 0 mm | - | 13 W/m² | - |
| 1777676138 | 17.22° C | 89% | 1011.9 hPa | 0 mm | - | 17 W/m² | - |
| 1777675834 | 17.22° C | 88% | 1011.9 hPa | 0 mm | - | 24 W/m² | - |
| 1777675532 | 17.22° C | 87% | 1011.5 hPa | 0 mm | - | 21 W/m² | - |
| 1777675229 | 17.22° C | 87% | 1011.5 hPa | 0 mm | - | 24 W/m² | - |
* Rain latest hour (hover to see other rain measurements)
** Current wind speed in m/s (hover to see current wind gust speed)